Regional Weather Roundup
Issued by NWS Sioux Falls, SD

Home | Current Version | Previous Version | Text Only | Print | Product List | Glossary Off
Versions: 1 2 3 4 5 6 7 8 9 10 11 12 13 14 15 16 17 18 19 20 21 22 23 24 25 26 27 28 29 30 31 32 33 34 35 36 37 38 39 40 41 42 43 44 45 46 47 48 49 50

000
ASUS43 KFSD 302010
RWRFSD

WEATHER ROUNDUP FOR SE SOUTH DAKOTA/SW MINNESOTA/NW IOWA
NATIONAL WEATHER SERVICE SIOUX FALLS SD
300 PM CDT SAT AUG 30 2014

NOTE: "FAIR" INDICATES FEW OR NO CLOUDS BELOW 12,000 FEET WITH NO
SIGNIFICANT WEATHER AND OR OBSTRUCTIONS TO VISIBILITY.


SDZ038>040-050-052>070-302100-
SOUTHEAST SOUTH DAKOTA

CITY           SKY/WX    TMP DP  RH WIND       PRES   REMARKS
CHAMBERLAIN    SUNNY     74  61  64 SE12      29.86F
HURON          PTSUNNY   68  57  68 S6        29.89F
MADISON        CLOUDY    66  63  88 NW5       29.92F
MITCHELL       MOSUNNY   69  59  70 CALM      29.91F
SIOUX FALLS    PTSUNNY   69  61  75 SW7       29.91F
WINNER         FAIR      80  60  50 S15G22    29.86F
YANKTON        SUNNY     70  61  73 NE5       29.91F
$$

MNZ071-072-080-081-089-090-097-098-302100-
SOUTHWEST MINNESOTA

CITY           SKY/WX    TMP DP  RH WIND       PRES   REMARKS
FAIRMONT       PTSUNNY   70  61  73 N5        29.89F
JACKSON        MOSUNNY   73  61  64 W3        29.91S
LUVERNE        PTSUNNY   72  59  64 W5        29.91F
MARSHALL       CLOUDY    66  59  77 W8        29.90S
MONTEVIDEO     CLOUDY    70  70 100 NW6       29.90F
PIPESTONE      CLOUDY    66  61  82 W3        29.92F
REDWOOD FALLS  CLOUDY    69  63  81 W9        29.89S
TRACY          CLOUDY    70  63  80 CALM      29.90F
WINDOM         PTSUNNY   70  63  78 NW5       29.91S
WORTHINGTON    CLOUDY    72  63  73 NW8       29.92S
$$

IAZ001>003-012>014-020>022-031-032-NEZ013-014-SDZ071-302100-
NORTHWEST IOWA

CITY           SKY/WX    TMP DP  RH WIND       PRES   REMARKS
CHEROKEE       MOSUNNY   73  63  71 W3        29.91F
DENISON        SUNNY     73  63  68 VRB7      29.91F
ESTHERVILLE    MOSUNNY   74  62  66 NW3       29.89F
LE MARS        PTSUNNY   73  63  68 W6        29.92S
ORANGE CITY    MOSUNNY   73  61  64 W3        29.91F
SHELDON        MOSUNNY   73  64  73 NW6       29.89F
SIOUX CITY     SUNNY     74  61  63 N8        29.92F
SPENCER        MOSUNNY   76  63  64 W7        29.89F
STORM LAKE     PTSUNNY   72  70  94 W6G12     29.92F
$$

ABBREVIATIONS USED IN REMARKS
   TC - TEMPERATURE IN CELSIUS
  WCI - WIND CHILL INDEX
   HX - HEAT INDEX
  VSB - VISIBILITY



USA.gov is the U.S. government's official web portal to all federal, state and local government web resources and services.